Location: Newark
(13.7497°N, 100.4964°E)
Time: 04:52:04
(UTC+00:00)

LightSail 2 - Visible Passes

Search period start: 18 September 2019 00:00
Search period end: 28 September 2019 00:00
Orbit: 699 x 732 km, 24.0° (Epoch: 17 September)

Date Brightness Start Highest point End Pass type
(mag) Time Alt. Az. Time Alt. Az. Time Alt. Az.
18 Sep 7.5 20:34:47 20° E 20:34:47 20° E 20:36:26 10° E visible
18 Sep 5.4 22:13:49 20° W 22:17:08 54° NNW 22:22:07 10° ENE visible
19 Sep 5.2 21:20:18 68° NNE 21:20:18 68° NNE 21:24:58 10° ENE visible
20 Sep 7.8 20:26:44 16° ENE 20:26:44 16° ENE 20:27:45 10° ENE visible
20 Sep 6.0 22:05:46 22° WNW 22:08:25 37° NNW 22:13:08 10° NE visible
21 Sep 6.0 21:12:10 40° NNE 21:12:10 40° NNE 21:15:59 10° ENE visible
22 Sep 8.1 20:18:32 12° ENE 20:18:32 12° ENE 20:18:50 10° ENE visible
22 Sep 6.4 21:57:34 21° NW 21:59:46 29° N 22:04:09 10° NE visible
23 Sep 6.7 21:03:55 27° NNE 21:03:55 27° NNE 21:06:58 10° NE visible
23 Sep 6.7 22:44:26 10° NW 22:48:35 25° N 22:52:44 10° NE visible
24 Sep 6.6 21:49:17 20° NW 21:51:10 25° N 21:55:20 10° NE visible
25 Sep 7.1 20:55:37 21° NNE 20:55:37 21° NNE 20:58:02 10° NE visible
25 Sep 6.7 22:35:44 10° NW 22:39:59 26° N 22:44:14 10° ENE visible
26 Sep 6.6 21:40:59 21° NNW 21:42:33 25° N 21:46:43 10° ENE visible
27 Sep 7.4 20:47:20 19° NE 20:47:20 19° NE 20:49:16 10° NE visible
27 Sep 6.4 22:26:47 10° NW 22:31:19 32° N 22:35:51 10° ENE visible
